| time (UTC) | temp F | wind direction | speed knots | gust knots | rain 1hr in | rain 24hr in | rain mn in | humidity % | barometer mb |
| 20260507112557 | 48 | 0 | 0.0 | 0.0 | 0.00 | 0.00 | 0.00 | 89 | 1021.2 |
| 20260507112057 | 48 | 0 | 0.0 | 0.0 | 0.00 | 0.00 | 0.00 | 88 | 1021.1 |
| 20260507111600 | 48 | 0 | 0.0 | 0.0 | 0.00 | 0.00 | 0.00 | 88 | 1021.2 |
| 20260507111058 | 48 | 0 | 0.0 | 0.0 | 0.00 | 0.00 | 0.00 | 88 | 1021.2 |
| 20260507110557 | 48 | 0 | 0.0 | 0.0 | 0.00 | 0.00 | 0.00 | 88 | 1021.1 |
| 20260507110118 | 48 | 0 | 0.0 | 0.0 | 0.00 | 0.00 | 0.00 | 87 | 1021.1 |
| 20260507105558 | 48 | 0 | 0.0 | 0.0 | 0.00 | 0.00 | 0.00 | 86 | 1021.2 |
| 20260507105100 | 49 | 0 | 0.0 | 0.0 | 0.00 | 0.00 | 0.00 | 86 | 1021.1 |
| 20260507104558 | 49 | 0 | 0.0 | 0.0 | 0.00 | 0.00 | 0.00 | 86 | 1021.1 |
| 20260507104057 | 49 | 0 | 0.0 | 0.9 | 0.00 | 0.00 | 0.00 | 86 | 1021.1 |
| 20260507103558 | 49 | 0 | 0.0 | 0.9 | 0.00 | 0.00 | 0.00 | 86 | 1021.2 |
| 20260507103059 | 49 | 0 | 0.0 | 0.9 | 0.00 | 0.00 | 0.00 | 86 | 1021.3 |
| 20260507102557 | 49 | 0 | 0.0 | 0.0 | 0.00 | 0.00 | 0.00 | 86 | 1021.3 |
| 20260507102057 | 49 | 0 | 0.0 | 0.0 | 0.00 | 0.00 | 0.00 | 86 | 1021.4 |
| 20260507101559 | 49 | 0 | 0.0 | 0.0 | 0.00 | 0.00 | 0.00 | 86 | 1021.4 |
| 20260507101057 | 49 | 0 | 0.0 | 0.0 | 0.00 | 0.00 | 0.00 | 86 | 1021.5 |
| 20260507100557 | 49 | 0 | 0.0 | 0.9 | 0.00 | 0.00 | 0.00 | 86 | 1021.5 |
| 20260507100100 | 49 | 0 | 0.0 | 0.9 | 0.00 | 0.00 | 0.00 | 86 | 1021.4 |
| 20260507095557 | 49 | 0 | 0.0 | 1.7 | 0.00 | 0.00 | 0.00 | 85 | 1021.5 |
| 20260507095059 | 49 | 288 | 0.0 | 1.7 | 0.00 | 0.00 | 0.00 | 86 | 1021.5 |
| 20260507094610 | 49 | 288 | 0.0 | 0.9 | 0.00 | 0.00 | 0.00 | 85 | 1021.4 |
| 20260507094056 | 49 | 290 | 0.0 | 0.9 | 0.00 | 0.00 | 0.00 | 86 | 1021.5 |
| 20260507093556 | 49 | 0 | 0.0 | 0.9 | 0.00 | 0.00 | 0.00 | 86 | 1021.5 |
| 20260507093101 | 49 | 0 | 0.0 | 0.9 | 0.00 | 0.00 | 0.00 | 85 | 1021.7 |
| 20260507092557 | 49 | 0 | 0.0 | 0.9 | 0.00 | 0.00 | 0.00 | 85 | 1021.8 |
| 20260507092057 | 49 | 0 | 0.0 | 2.6 | 0.00 | 0.00 | 0.00 | 85 | 1021.8 |
| 20260507091641 | 49 | 0 | 0.0 | 2.6 | 0.00 | 0.00 | 0.00 | 84 | 1021.9 |
| 20260507091057 | 49 | 300 | 0.9 | 2.6 | 0.00 | 0.00 | 0.00 | 83 | 1021.9 |
| 20260507090558 | 50 | 315 | 0.0 | 3.5 | 0.00 | 0.00 | 0.00 | 84 | 1022.0 |
| 20260507090106 | 50 | 301 | 1.7 | 5.2 | 0.00 | 0.00 | 0.00 | 83 | 1022.0 |
| 20260507085600 | 50 | 319 | 1.7 | 5.2 | 0.00 | 0.00 | 0.00 | 83 | 1022.0 |
| 20260507085058 | 50 | 317 | 1.7 | 6.1 | 0.00 | 0.00 | 0.00 | 83 | 1021.9 |
| 20260507084558 | 50 | 317 | 1.7 | 6.1 | 0.00 | 0.00 | 0.00 | 83 | 1021.9 |
| 20260507084101 | 50 | 319 | 1.7 | 7.0 | 0.00 | 0.00 | 0.00 | 83 | 1021.9 |
| 20260507083556 | 50 | 329 | 1.7 | 7.0 | 0.00 | 0.00 | 0.00 | 83 | 1021.8 |
| 20260507083059 | 50 | 342 | 3.5 | 7.0 | 0.00 | 0.00 | 0.00 | 82 | 1021.9 |
| 20260507082555 | 50 | 306 | 0.0 | 5.2 | 0.00 | 0.00 | 0.00 | 83 | 1021.9 |
| 20260507082056 | 50 | 0 | 1.7 | 5.2 | 0.00 | 0.00 | 0.00 | 83 | 1021.9 |
| 20260507081557 | 50 | 319 | 2.6 | 5.2 | 0.00 | 0.00 | 0.00 | 83 | 1021.9 |
| 20260507081055 | 50 | 320 | 0.9 | 3.5 | 0.00 | 0.00 | 0.00 | 83 | 1021.9 |
| 20260507080559 | 50 | 304 | 0.9 | 3.5 | 0.00 | 0.00 | 0.00 | 83 | 1021.8 |
| 20260507075600 | 51 | 308 | 0.0 | 3.5 | 0.00 | 0.00 | 0.00 | 83 | 1021.9 |
| 20260507075057 | 51 | 0 | 0.0 | 3.5 | 0.00 | 0.00 | 0.00 | 83 | 1021.9 |
| 20260507074559 | 51 | 0 | 1.7 | 3.5 | 0.00 | 0.00 | 0.00 | 83 | 1021.9 |
| 20260507074058 | 51 | 336 | 0.9 | 4.3 | 0.00 | 0.00 | 0.00 | 83 | 1021.8 |
| 20260507073558 | 51 | 328 | 1.7 | 4.3 | 0.00 | 0.00 | 0.00 | 82 | 1021.8 |
| 20260507073059 | 51 | 304 | 0.9 | 4.3 | 0.00 | 0.00 | 0.00 | 82 | 1021.8 |
| 20260507072556 | 51 | 328 | 0.9 | 5.2 | 0.00 | 0.00 | 0.00 | 82 | 1021.8 |
| 20260507072058 | 51 | 319 | 0.9 | 5.2 | 0.00 | 0.00 | 0.00 | 82 | 1021.8 |
| 20260507071600 | 51 | 316 | 0.9 | 5.2 | 0.00 | 0.00 | 0.00 | 81 | 1021.8 |
| 20260507071056 | 51 | 317 | 1.7 | 7.8 | 0.00 | 0.00 | 0.00 | 81 | 1021.8 |
| 20260507070556 | 51 | 323 | 2.6 | 7.8 | 0.00 | 0.00 | 0.00 | 81 | 1021.8 |
| 20260507070107 | 51 | 333 | 4.3 | 9.6 | 0.00 | 0.00 | 0.00 | 80 | 1021.8 |
| 20260507065555 | 51 | 339 | 3.5 | 9.6 | 0.00 | 0.00 | 0.00 | 80 | 1021.8 |
| 20260507065057 | 52 | 345 | 2.6 | 7.0 | 0.00 | 0.00 | 0.00 | 81 | 1021.8 |
| 20260507064600 | 52 | 303 | 1.7 | 7.0 | 0.00 | 0.00 | 0.00 | 82 | 1021.8 |
| 20260507064056 | 52 | 334 | 3.5 | 8.7 | 0.00 | 0.00 | 0.00 | 82 | 1021.8 |
| 20260507063558 | 52 | 317 | 3.5 | 8.7 | 0.00 | 0.00 | 0.00 | 83 | 1021.8 |
| 20260507063059 | 52 | 321 | 2.6 | 6.1 | 0.00 | 0.00 | 0.00 | 83 | 1021.7 |
| 20260507062556 | 52 | 326 | 1.7 | 6.1 | 0.00 | 0.00 | 0.00 | 84 | 1021.7 |
| 20260507062057 | 52 | 331 | 2.6 | 6.1 | 0.00 | 0.00 | 0.00 | 83 | 1021.7 |
| 20260507061558 | 52 | 317 | 2.6 | 5.2 | 0.00 | 0.00 | 0.00 | 83 | 1021.6 |
| 20260507061057 | 52 | 313 | 1.7 | 4.3 | 0.00 | 0.00 | 0.00 | 83 | 1021.6 |
| 20260507060558 | 52 | 315 | 1.7 | 4.3 | 0.00 | 0.00 | 0.00 | 84 | 1021.6 |
| 20260507060106 | 52 | 304 | 0.9 | 4.3 | 0.00 | 0.00 | 0.00 | 84 | 1021.6 |
| 20260507055556 | 53 | 324 | 2.6 | 4.3 | 0.00 | 0.00 | 0.00 | 84 | 1021.7 |
| 20260507055055 | 53 | 314 | 2.6 | 4.3 | 0.00 | 0.00 | 0.00 | 83 | 1021.7 |
| 20260507054600 | 53 | 0 | 0.0 | 2.6 | 0.00 | 0.00 | 0.00 | 84 | 1021.7 |
| 20260507054058 | 53 | 314 | 0.9 | 3.5 | 0.00 | 0.00 | 0.00 | 84 | 1021.7 |
| 20260507053559 | 53 | 0 | 0.9 | 4.3 | 0.00 | 0.00 | 0.00 | 84 | 1021.7 |
| 20260507053057 | 53 | 327 | 2.6 | 4.3 | 0.00 | 0.00 | 0.00 | 83 | 1021.7 |
| 20260507052558 | 53 | 318 | 0.9 | 7.0 | 0.00 | 0.00 | 0.00 | 84 | 1021.7 |
| 20260507052059 | 53 | 0 | 0.0 | 7.0 | 0.00 | 0.00 | 0.00 | 84 | 1021.8 |
| 20260507051557 | 53 | 305 | 0.0 | 5.2 | 0.00 | 0.00 | 0.00 | 84 | 1021.8 |
| 20260507051057 | 53 | 266 | 0.9 | 2.6 | 0.00 | 0.00 | 0.00 | 84 | 1021.9 |
| 20260507050558 | 53 | 0 | 0.0 | 1.7 | 0.00 | 0.00 | 0.00 | 84 | 1021.8 |
| 20260507050100 | 53 | 0 | 0.0 | 1.7 | 0.00 | 0.00 | 0.00 | 84 | 1021.9 |
| 20260507045558 | 53 | 0 | 0.0 | 2.6 | 0.00 | 0.00 | 0.00 | 84 | 1021.8 |
| 20260507045058 | 53 | 0 | 0.0 | 4.3 | 0.00 | 0.00 | 0.00 | 84 | 1021.8 |
| 20260507044601 | 53 | 320 | 0.9 | 5.2 | 0.00 | 0.00 | 0.00 | 84 | 1021.9 |
| 20260507044059 | 53 | 314 | 0.9 | 5.2 | 0.00 | 0.00 | 0.00 | 84 | 1021.9 |
| 20260507043558 | 53 | 321 | 0.9 | 3.5 | 0.00 | 0.00 | 0.00 | 84 | 1021.9 |
| 20260507043101 | 53 | 325 | 0.9 | 2.6 | 0.00 | 0.00 | 0.00 | 84 | 1021.8 |
| 20260507042556 | 53 | 0 | 0.9 | 2.6 | 0.00 | 0.00 | 0.00 | 84 | 1021.8 |
| 20260507042058 | 53 | 0 | 0.0 | 5.2 | 0.00 | 0.00 | 0.00 | 84 | 1021.7 |
| 20260507041558 | 53 | 327 | 1.7 | 5.2 | 0.00 | 0.00 | 0.00 | 84 | 1021.8 |
| 20260507041058 | 54 | 0 | 1.7 | 5.2 | 0.00 | 0.00 | 0.00 | 84 | 1021.9 |
| 20260507040559 | 54 | 319 | 1.7 | 7.0 | 0.00 | 0.00 | 0.00 | 83 | 1021.8 |
| 20260507040103 | 54 | 314 | 2.6 | 7.0 | 0.00 | 0.00 | 0.00 | 83 | 1021.8 |
| 20260507035558 | 54 | 307 | 1.7 | 6.1 | 0.00 | 0.00 | 0.00 | 83 | 1021.7 |
| 20260507035058 | 54 | 290 | 1.7 | 7.8 | 0.00 | 0.00 | 0.00 | 83 | 1021.6 |
| 20260507034600 | 54 | 295 | 1.7 | 7.8 | 0.00 | 0.00 | 0.00 | 82 | 1021.6 |
| 20260507034059 | 54 | 298 | 2.6 | 7.8 | 0.00 | 0.00 | 0.00 | 82 | 1021.5 |
| 20260507033558 | 54 | 315 | 2.6 | 8.7 | 0.00 | 0.00 | 0.00 | 82 | 1021.4 |
| 20260507033059 | 55 | 322 | 2.6 | 8.7 | 0.00 | 0.00 | 0.00 | 81 | 1021.3 |
| 20260507032559 | 55 | 328 | 3.5 | 8.7 | 0.00 | 0.00 | 0.00 | 81 | 1021.2 |
| 20260507032057 | 55 | 300 | 0.9 | 4.3 | 0.00 | 0.00 | 0.00 | 82 | 1021.1 |
| 20260507031555 | 55 | 333 | 0.9 | 7.0 | 0.00 | 0.00 | 0.00 | 82 | 1021.1 |
| 20260507031059 | 55 | 322 | 1.7 | 7.0 | 0.00 | 0.00 | 0.00 | 81 | 1021.0 |
| 20260507030558 | 55 | 319 | 2.6 | 7.0 | 0.00 | 0.00 | 0.00 | 81 | 1021.0 |
| 20260507030059 | 55 | 324 | 2.6 | 7.8 | 0.00 | 0.00 | 0.00 | 81 | 1021.0 |
| 20260507025558 | 56 | 307 | 2.6 | 9.6 | 0.00 | 0.00 | 0.00 | 80 | 1021.0 |
| 20260507025058 | 56 | 331 | 3.5 | 9.6 | 0.00 | 0.00 | 0.00 | 80 | 1020.9 |
| 20260507024609 | 56 | 319 | 4.3 | 8.7 | 0.00 | 0.00 | 0.00 | 79 | 1020.9 |
| 20260507024059 | 56 | 314 | 3.5 | 8.7 | 0.00 | 0.00 | 0.00 | 80 | 1020.9 |
| 20260507023558 | 56 | 321 | 3.5 | 11.3 | 0.00 | 0.00 | 0.00 | 80 | 1020.8 |
| 20260507023057 | 56 | 316 | 4.3 | 11.3 | 0.00 | 0.00 | 0.00 | 79 | 1020.8 |
| 20260507022558 | 57 | 318 | 6.1 | 11.3 | 0.00 | 0.00 | 0.00 | 79 | 1020.7 |
| 20260507022058 | 57 | 288 | 4.3 | 11.3 | 0.00 | 0.00 | 0.00 | 79 | 1020.7 |
| 20260507021600 | 57 | 333 | 4.3 | 11.3 | 0.00 | 0.00 | 0.00 | 79 | 1020.7 |
| 20260507021058 | 57 | 333 | 4.3 | 8.7 | 0.00 | 0.00 | 0.00 | 79 | 1020.7 |
| 20260507020558 | 58 | 338 | 4.3 | 10.4 | 0.00 | 0.00 | 0.00 | 79 | 1020.7 |
| 20260507020058 | 58 | 321 | 5.2 | 10.4 | 0.00 | 0.00 | 0.00 | 79 | 1020.6 |
| 20260507015557 | 58 | 320 | 6.1 | 10.4 | 0.00 | 0.00 | 0.00 | 78 | 1020.6 |
| 20260507015057 | 58 | 339 | 5.2 | 9.6 | 0.00 | 0.00 | 0.00 | 78 | 1020.6 |
| 20260507014600 | 58 | 331 | 4.3 | 8.7 | 0.00 | 0.00 | 0.00 | 78 | 1020.6 |
| 20260507014058 | 59 | 332 | 4.3 | 8.7 | 0.00 | 0.00 | 0.00 | 78 | 1020.4 |
| 20260507013600 | 59 | 306 | 4.3 | 8.7 | 0.00 | 0.00 | 0.00 | 77 | 1020.5 |
| 20260507013057 | 59 | 329 | 3.5 | 8.7 | 0.00 | 0.00 | 0.00 | 76 | 1020.4 |
| 20260507012558 | 59 | 325 | 4.3 | 8.7 | 0.00 | 0.00 | 0.00 | 76 | 1020.4 |
| 20260507012058 | 59 | 348 | 5.2 | 8.7 | 0.00 | 0.00 | 0.00 | 76 | 1020.4 |
| 20260507011558 | 60 | 329 | 4.3 | 7.8 | 0.00 | 0.00 | 0.00 | 75 | 1020.5 |
| 20260507011058 | 60 | 302 | 1.7 | 7.8 | 0.00 | 0.00 | 0.00 | 75 | 1020.6 |
| 20260507010558 | 60 | 307 | 3.5 | 7.8 | 0.00 | 0.00 | 0.00 | 74 | 1020.6 |
| 20260507010113 | 60 | 329 | 2.6 | 7.8 | 0.00 | 0.00 | 0.00 | 74 | 1020.7 |
| 20260507005558 | 60 | 271 | 2.6 | 7.8 | 0.00 | 0.00 | 0.00 | 74 | 1020.8 |
| 20260507005057 | 60 | 309 | 3.5 | 9.6 | 0.00 | 0.00 | 0.00 | 73 | 1020.8 |
| 20260507004600 | 60 | 304 | 4.3 | 9.6 | 0.00 | 0.00 | 0.00 | 74 | 1020.8 |
| 20260507004058 | 60 | 315 | 3.5 | 9.6 | 0.00 | 0.00 | 0.00 | 73 | 1020.8 |
| 20260507003559 | 61 | 325 | 4.3 | 10.4 | 0.00 | 0.00 | 0.00 | 72 | 1020.7 |
| 20260507003055 | 61 | 265 | 4.3 | 10.4 | 0.00 | 0.00 | 0.00 | 71 | 1020.7 |
| 20260507002558 | 62 | 303 | 5.2 | 10.4 | 0.00 | 0.00 | 0.00 | 70 | 1020.8 |
| 20260507002058 | 62 | 341 | 3.5 | 8.7 | 0.00 | 0.00 | 0.00 | 70 | 1020.8 |
| 20260507001601 | 62 | 317 | 3.5 | 8.7 | 0.00 | 0.00 | 0.00 | 70 | 1020.7 |
| 20260507001058 | 62 | 306 | 4.3 | 8.7 | 0.00 | 0.00 | 0.00 | 70 | 1020.8 |
| 20260507000602 | 61 | 322 | 1.7 | 10.4 | 0.00 | 0.00 | 0.00 | 71 | 1020.6 |
| 20260507000104 | 61 | 360 | 4.3 | 11.3 | 0.00 | 0.00 | 0.00 | 70 | 1020.6 |
| 20260506235559 | 61 | 317 | 6.1 | 11.3 | 0.00 | 0.00 | 0.00 | 70 | 1020.7 |
| 20260506235100 | 61 | 306 | 4.3 | 8.7 | 0.00 | 0.00 | 0.00 | 70 | 1020.6 |
| 20260506234621 | 61 | 288 | 4.3 | 8.7 | 0.00 | 0.00 | 0.00 | 71 | 1020.6 |
| 20260506234100 | 61 | 332 | 5.2 | 11.3 | 0.00 | 0.00 | 0.00 | 70 | 1020.7 |
| 20260506233559 | 61 | 308 | 4.3 | 11.3 | 0.00 | 0.00 | 0.00 | 70 | 1020.7 |
| 20260506233103 | 62 | 317 | 6.1 | 11.3 | 0.00 | 0.00 | 0.00 | 68 | 1020.7 |
| 20260506232557 | 62 | 323 | 5.2 | 10.4 | 0.00 | 0.00 | 0.00 | 69 | 1020.7 |
| 20260506232058 | 62 | 5 | 6.1 | 10.4 | 0.00 | 0.00 | 0.00 | 71 | 1020.7 |
| 20260506231558 | 62 | 5 | 6.1 | 12.2 | 0.00 | 0.00 | 0.00 | 70 | 1020.7 |
| 20260506231059 | 62 | 321 | 6.1 | 12.2 | 0.00 | 0.00 | 0.00 | 71 | 1020.7 |
| 20260506230558 | 62 | 326 | 7.0 | 12.2 | 0.00 | 0.00 | 0.00 | 69 | 1020.8 |
| 20260506230056 | 62 | 265 | 4.3 | 11.3 | 0.00 | 0.00 | 0.00 | 71 | 1020.7 |
| 20260506225559 | 62 | 312 | 4.3 | 11.3 | 0.00 | 0.00 | 0.00 | 69 | 1020.7 |
| 20260506225059 | 62 | 321 | 5.2 | 11.3 | 0.00 | 0.00 | 0.00 | 68 | 1020.8 |
| 20260506224557 | 62 | 264 | 0.9 | 10.4 | 0.00 | 0.00 | 0.00 | 72 | 1020.8 |
| 20260506224059 | 62 | 317 | 6.1 | 10.4 | 0.00 | 0.00 | 0.00 | 70 | 1021.0 |
| 20260506223558 | 61 | 337 | 5.2 | 9.6 | 0.00 | 0.00 | 0.00 | 72 | 1021.0 |
| 20260506223104 | 61 | 336 | 4.3 | 9.6 | 0.00 | 0.00 | 0.00 | 72 | 1021.0 |
| 20260506222600 | 61 | 343 | 3.5 | 9.6 | 0.00 | 0.00 | 0.00 | 72 | 1020.9 |
| 20260506222058 | 61 | 281 | 2.6 | 12.2 | 0.00 | 0.00 | 0.00 | 73 | 1021.0 |
| 20260506221557 | 61 | 344 | 7.0 | 12.2 | 0.00 | 0.00 | 0.00 | 72 | 1021.1 |
| 20260506221058 | 61 | 329 | 5.2 | 12.2 | 0.00 | 0.00 | 0.00 | 72 | 1021.2 |
| 20260506220601 | 61 | 340 | 3.5 | 10.4 | 0.00 | 0.00 | 0.00 | 75 | 1021.2 |
| 20260506220057 | 60 | 340 | 6.1 | 10.4 | 0.00 | 0.00 | 0.00 | 73 | 1021.2 |
| 20260506215601 | 61 | 321 | 4.3 | 9.6 | 0.00 | 0.00 | 0.00 | 74 | 1021.2 |
| 20260506215101 | 60 | 322 | 3.5 | 9.6 | 0.00 | 0.00 | 0.00 | 75 | 1021.1 |
| 20260506214606 | 60 | 306 | 4.3 | 9.6 | 0.00 | 0.00 | 0.00 | 74 | 1021.1 |
| 20260506214059 | 60 | 0 | 3.5 | 9.6 | 0.00 | 0.00 | 0.00 | 76 | 1021.1 |
| 20260506213558 | 60 | 346 | 4.3 | 8.7 | 0.00 | 0.00 | 0.00 | 76 | 1021.1 |
| 20260506213059 | 59 | 322 | 3.5 | 7.8 | 0.00 | 0.00 | 0.00 | 77 | 1021.2 |
| 20260506212558 | 59 | 328 | 2.6 | 6.1 | 0.00 | 0.00 | 0.00 | 77 | 1021.2 |
| 20260506212058 | 59 | 5 | 2.6 | 6.1 | 0.00 | 0.00 | 0.00 | 79 | 1021.2 |
| 20260506211600 | 59 | 330 | 0.9 | 5.2 | 0.00 | 0.00 | 0.00 | 80 | 1021.2 |
| 20260506211058 | 59 | 26 | 1.7 | 5.2 | 0.00 | 0.00 | 0.00 | 79 | 1021.1 |
| 20260506210558 | 58 | 21 | 1.7 | 5.2 | 0.00 | 0.00 | 0.00 | 79 | 1021.2 |
| 20260506210056 | 58 | 5 | 1.7 | 7.8 | 0.00 | 0.00 | 0.00 | 80 | 1021.2 |
| 20260506205558 | 58 | 351 | 2.6 | 7.8 | 0.00 | 0.00 | 0.00 | 81 | 1021.3 |
| 20260506205058 | 57 | 0 | 1.7 | 7.8 | 0.00 | 0.00 | 0.00 | 81 | 1021.2 |
| 20260506204608 | 57 | 315 | 2.6 | 6.1 | 0.00 | 0.00 | 0.00 | 81 | 1021.3 |
| 20260506204057 | 57 | 292 | 0.9 | 7.0 | 0.00 | 0.00 | 0.00 | 82 | 1021.3 |
| 20260506203557 | 57 | 319 | 1.7 | 7.0 | 0.00 | 0.00 | 0.00 | 83 | 1021.3 |
| 20260506203055 | 57 | 304 | 0.9 | 5.2 | 0.00 | 0.00 | 0.00 | 83 | 1021.2 |
| 20260506202559 | 57 | 333 | 1.7 | 6.1 | 0.00 | 0.00 | 0.00 | 84 | 1021.2 |
| 20260506202058 | 57 | 298 | 2.6 | 6.1 | 0.00 | 0.00 | 0.00 | 83 | 1021.2 |
| 20260506201600 | 57 | 323 | 1.7 | 3.5 | 0.00 | 0.00 | 0.00 | 84 | 1021.2 |
| 20260506201059 | 56 | 360 | 0.9 | 5.2 | 0.00 | 0.00 | 0.00 | 85 | 1021.1 |
| 20260506200557 | 56 | 351 | 1.7 | 5.2 | 0.00 | 0.00 | 0.00 | 86 | 1021.3 |
| 20260506200059 | 56 | 0 | 1.7 | 5.2 | 0.00 | 0.00 | 0.00 | 86 | 1021.3 |
| 20260506195603 | 56 | 313 | 1.7 | 4.3 | 0.00 | 0.00 | 0.00 | 87 | 1021.4 |
| 20260506195058 | 55 | 343 | 0.9 | 7.0 | 0.00 | 0.00 | 0.00 | 88 | 1021.4 |
| 20260506194600 | 55 | 350 | 1.7 | 7.0 | 0.00 | 0.00 | 0.00 | 87 | 1021.4 |
| 20260506194058 | 55 | 325 | 2.6 | 7.0 | 0.00 | 0.00 | 0.00 | 88 | 1021.4 |
| 20260506193558 | 55 | 342 | 2.6 | 7.8 | 0.00 | 0.00 | 0.00 | 88 | 1021.4 |
| 20260506193100 | 55 | 351 | 3.5 | 7.8 | 0.00 | 0.00 | 0.00 | 88 | 1021.4 |
| 20260506192559 | 55 | 320 | 1.7 | 8.7 | 0.00 | 0.00 | 0.00 | 88 | 1021.3 |
| 20260506192059 | 55 | 349 | 4.3 | 8.7 | 0.00 | 0.00 | 0.00 | 88 | 1021.2 |
| 20260506191558 | 55 | 315 | 2.6 | 5.2 | 0.00 | 0.00 | 0.00 | 88 | 1021.3 |
| 20260506191058 | 55 | 337 | 1.7 | 5.2 | 0.00 | 0.00 | 0.00 | 88 | 1021.1 |
| 20260506190557 | 55 | 335 | 1.7 | 4.3 | 0.00 | 0.00 | 0.00 | 88 | 1021.0 |
| 20260506190100 | 55 | 334 | 1.7 | 4.3 | 0.00 | 0.00 | 0.00 | 88 | 1021.1 |
| 20260506185557 | 54 | 349 | 1.7 | 4.3 | 0.00 | 0.00 | 0.00 | 89 | 1021.2 |
| 20260506185058 | 54 | 317 | 1.7 | 7.8 | 0.00 | 0.00 | 0.00 | 88 | 1021.2 |
| 20260506184558 | 54 | 306 | 4.3 | 7.8 | 0.00 | 0.00 | 0.00 | 89 | 1021.2 |
| 20260506184058 | 55 | 321 | 1.7 | 5.2 | 0.00 | 0.00 | 0.00 | 89 | 1021.3 |
| 20260506183558 | 54 | 321 | 1.7 | 5.2 | 0.00 | 0.00 | 0.00 | 89 | 1021.2 |
| 20260506183107 | 54 | 312 | 2.6 | 5.2 | 0.00 | 0.00 | 0.00 | 89 | 1021.2 |
| 20260506182557 | 54 | 315 | 1.7 | 5.2 | 0.00 | 0.00 | 0.00 | 89 | 1021.2 |
| 20260506182059 | 54 | 0 | 2.6 | 6.1 | 0.00 | 0.00 | 0.00 | 90 | 1021.2 |
| 20260506181557 | 54 | 321 | 2.6 | 6.1 | 0.00 | 0.00 | 0.00 | 89 | 1021.3 |
| 20260506181057 | 54 | 323 | 1.7 | 5.2 | 0.00 | 0.00 | 0.00 | 90 | 1021.2 |
| 20260506180558 | 54 | 317 | 2.6 | 5.2 | 0.00 | 0.00 | 0.00 | 90 | 1021.3 |
| 20260506180058 | 54 | 296 | 2.6 | 6.1 | 0.00 | 0.00 | 0.00 | 90 | 1021.2 |
| 20260506175559 | 54 | 313 | 3.5 | 6.1 | 0.00 | 0.00 | 0.00 | 90 | 1021.2 |
| 20260506175057 | 54 | 288 | 1.7 | 4.3 | 0.00 | 0.00 | 0.00 | 90 | 1021.3 |
| 20260506174608 | 54 | 320 | 1.7 | 3.5 | 0.00 | 0.00 | 0.00 | 90 | 1021.2 |
| 20260506174101 | 54 | 311 | 0.9 | 3.5 | 0.00 | 0.00 | 0.00 | 90 | 1021.2 |
| 20260506173558 | 54 | 306 | 1.7 | 3.5 | 0.00 | 0.00 | 0.00 | 90 | 1021.0 |
| 20260506173127 | 54 | 301 | 0.0 | 3.5 | 0.00 | 0.00 | 0.00 | 91 | 1020.9 |
| 20260506172557 | 54 | 245 | 0.9 | 3.5 | 0.00 | 0.00 | 0.00 | 91 | 1020.7 |
| 20260506172058 | 54 | 0 | 0.9 | 3.5 | 0.00 | 0.00 | 0.00 | 91 | 1020.8 |
| 20260506171600 | 53 | 0 | 0.0 | 2.6 | 0.00 | 0.00 | 0.00 | 91 | 1020.9 |
| 20260506171058 | 53 | 275 | 0.9 | 2.6 | 0.00 | 0.00 | 0.00 | 92 | 1021.0 |
| 20260506170559 | 53 | 315 | 0.0 | 1.7 | 0.00 | 0.00 | 0.00 | 92 | 1020.9 |
| 20260506170057 | 53 | 0 | 0.0 | 0.0 | 0.00 | 0.00 | 0.00 | 92 | 1020.9 |
| 20260506165557 | 53 | 0 | 0.0 | 0.0 | 0.00 | 0.00 | 0.00 | 92 | 1020.7 |
| 20260506165058 | 53 | 0 | 0.0 | 1.7 | 0.00 | 0.00 | 0.00 | 92 | 1020.7 |
| 20260506164556 | 53 | 0 | 0.0 | 2.6 | 0.00 | 0.00 | 0.00 | 93 | 1020.8 |
| 20260506164058 | 53 | 0 | 0.0 | 2.6 | 0.00 | 0.00 | 0.00 | 93 | 1020.8 |
| 20260506163558 | 53 | 271 | 0.0 | 3.5 | 0.00 | 0.00 | 0.00 | 93 | 1020.9 |
| 20260506163100 | 52 | 31 | 0.9 | 3.5 | 0.00 | 0.00 | 0.00 | 93 | 1020.8 |
| 20260506162559 | 52 | 326 | 0.0 | 2.6 | 0.00 | 0.00 | 0.00 | 93 | 1020.9 |
| 20260506162101 | 52 | 328 | 0.9 | 2.6 | 0.00 | 0.00 | 0.00 | 93 | 1020.9 |
| 20260506161609 | 52 | 0 | 0.0 | 2.6 | 0.00 | 0.00 | 0.00 | 93 | 1020.8 |
| 20260506161057 | 52 | 257 | 0.0 | 2.6 | 0.00 | 0.00 | 0.00 | 94 | 1020.8 |
| 20260506160558 | 52 | 0 | 0.0 | 2.6 | 0.00 | 0.00 | 0.00 | 94 | 1020.7 |
| 20260506160107 | 52 | 246 | 0.9 | 4.3 | 0.00 | 0.00 | 0.00 | 94 | 1020.7 |
| 20260506155557 | 52 | 306 | 0.9 | 5.2 | 0.00 | 0.00 | 0.00 | 94 | 1020.7 |
| 20260506155058 | 52 | 317 | 0.9 | 7.0 | 0.00 | 0.00 | 0.00 | 94 | 1020.5 |
| 20260506154601 | 52 | 302 | 3.5 | 7.0 | 0.00 | 0.00 | 0.00 | 94 | 1020.6 |
| 20260506154058 | 52 | 333 | 2.6 | 6.1 | 0.00 | 0.00 | 0.00 | 94 | 1020.6 |
| 20260506153558 | 52 | 316 | 0.9 | 6.1 | 0.00 | 0.00 | 0.00 | 95 | 1020.6 |
| 20260506153056 | 52 | 325 | 2.6 | 6.1 | 0.00 | 0.00 | 0.00 | 94 | 1020.5 |
| 20260506152558 | 52 | 296 | 2.6 | 4.3 | 0.00 | 0.00 | 0.00 | 95 | 1020.5 |
| 20260506152058 | 52 | 313 | 0.9 | 4.3 | 0.00 | 0.00 | 0.00 | 95 | 1020.4 |
| 20260506151558 | 52 | 315 | 0.9 | 3.5 | 0.00 | 0.00 | 0.00 | 95 | 1020.3 |
| 20260506151059 | 52 | 0 | 0.0 | 1.7 | 0.00 | 0.00 | 0.00 | 96 | 1020.1 |
| 20260506150601 | 52 | 0 | 0.0 | 1.7 | 0.00 | 0.00 | 0.00 | 95 | 1019.9 |
| 20260506150106 | 52 | 159 | 0.0 | 1.7 | 0.00 | 0.00 | 0.00 | 96 | 1019.9 |
| 20260506145559 | 52 | 0 | 0.0 | 1.7 | 0.00 | 0.00 | 0.00 | 96 | 1020.0 |
| 20260506145058 | 52 | 0 | 0.0 | 1.7 | 0.00 | 0.00 | 0.00 | 97 | 1020.1 |
| 20260506144611 | 51 | 0 | 0.0 | 1.7 | 0.00 | 0.00 | 0.00 | 96 | 1020.0 |
| 20260506144058 | 51 | 0 | 0.0 | 2.6 | 0.00 | 0.00 | 0.00 | 96 | 1020.1 |
| 20260506143559 | 51 | 0 | 0.0 | 3.5 | 0.00 | 0.00 | 0.00 | 96 | 1020.3 |
| 20260506143058 | 51 | 288 | 0.0 | 3.5 | 0.00 | 0.00 | 0.00 | 96 | 1020.4 |
| 20260506142557 | 52 | 0 | 0.9 | 3.5 | 0.00 | 0.00 | 0.00 | 96 | 1020.4 |
| 20260506142058 | 52 | 341 | 1.7 | 4.3 | 0.00 | 0.00 | 0.00 | 96 | 1020.4 |
| 20260506141557 | 52 | 313 | 0.9 | 4.3 | 0.00 | 0.00 | 0.00 | 96 | 1020.4 |
| 20260506141116 | 52 | 329 | 1.7 | 4.3 | 0.00 | 0.00 | 0.00 | 96 | 1020.3 |
| 20260506140557 | 52 | 342 | 0.9 | 4.3 | 0.00 | 0.00 | 0.00 | 96 | 1020.2 |
| 20260506140107 | 52 | 313 | 0.9 | 4.3 | 0.00 | 0.00 | 0.00 | 96 | 1020.1 |
| 20260506135559 | 52 | 327 | 2.6 | 5.2 | 0.00 | 0.00 | 0.00 | 95 | 1020.3 |
| 20260506135059 | 52 | 339 | 2.6 | 5.2 | 0.00 | 0.00 | 0.00 | 95 | 1020.2 |
| 20260506134557 | 52 | 327 | 2.6 | 4.3 | 0.00 | 0.00 | 0.00 | 95 | 1020.1 |
| 20260506134058 | 52 | 325 | 0.9 | 2.6 | 0.00 | 0.00 | 0.00 | 95 | 1020.0 |
| 20260506133558 | 52 | 0 | 0.0 | 2.6 | 0.00 | 0.00 | 0.00 | 95 | 1019.7 |
| 20260506133135 | 52 | 0 | 0.0 | 2.6 | 0.00 | 0.00 | 0.00 | 95 | 1019.6 |
| 20260506132557 | 52 | 309 | 0.0 | 2.6 | 0.00 | 0.00 | 0.00 | 95 | 1019.6 |
| 20260506132058 | 52 | 321 | 0.9 | 3.5 | 0.00 | 0.00 | 0.00 | 95 | 1019.6 |
| 20260506131603 | 52 | 315 | 0.0 | 3.5 | 0.00 | 0.00 | 0.00 | 96 | 1019.6 |
| 20260506131059 | 52 | 0 | 0.9 | 3.5 | 0.00 | 0.00 | 0.00 | 96 | 1019.5 |
| 20260506130558 | 52 | 0 | 0.0 | 1.7 | 0.00 | 0.00 | 0.00 | 96 | 1019.4 |
| 20260506130139 | 52 | 0 | 0.0 | 0.0 | 0.00 | 0.00 | 0.00 | 96 | 1019.4 |
| 20260506125558 | 52 | 0 | 0.0 | 0.0 | 0.00 | 0.00 | 0.00 | 96 | 1019.4 |
| 20260506125057 | 52 | 0 | 0.0 | 0.0 | 0.00 | 0.00 | 0.00 | 96 | 1019.3 |
| 20260506124559 | 52 | 0 | 0.0 | 0.0 | 0.00 | 0.00 | 0.00 | 96 | 1019.3 |
| 20260506124058 | 52 | 0 | 0.0 | 0.0 | 0.00 | 0.00 | 0.00 | 96 | 1019.2 |
| 20260506123558 | 52 | 0 | 0.0 | 0.0 | 0.00 | 0.00 | 0.00 | 96 | 1019.2 |
| 20260506123101 | 52 | 0 | 0.0 | 0.0 | 0.00 | 0.00 | 0.00 | 96 | 1019.2 |
| 20260506122558 | 52 | 0 | 0.0 | 0.0 | 0.00 | 0.00 | 0.00 | 96 | 1019.1 |
| 20260506122057 | 52 | 0 | 0.0 | 0.0 | 0.00 | 0.00 | 0.00 | 96 | 1019.1 |
| 20260506121602 | 52 | 0 | 0.0 | 0.0 | 0.00 | 0.00 | 0.00 | 96 | 1019.1 |
| 20260506121058 | 52 | 0 | 0.0 | 0.0 | 0.00 | 0.00 | 0.00 | 96 | 1019.1 |
| 20260506120600 | 52 | 0 | 0.0 | 0.0 | 0.00 | 0.00 | 0.00 | 96 | 1019.1 |
| 20260506120109 | 52 | 0 | 0.0 | 0.0 | 0.00 | 0.00 | 0.00 | 96 | 1019.1 |
| 20260506115557 | 52 | 0 | 0.0 | 0.0 | 0.00 | 0.00 | 0.00 | 96 | 1019.2 |
| 20260506115058 | 52 | 0 | 0.0 | 0.0 | 0.00 | 0.00 | 0.00 | 96 | 1019.1 |
| 20260506114606 | 52 | 0 | 0.0 | 0.0 | 0.00 | 0.00 | 0.00 | 96 | 1019.2 |
| 20260506114058 | 52 | 0 | 0.0 | 0.0 | 0.00 | 0.00 | 0.00 | 96 | 1019.1 |
| 20260506113557 | 52 | 0 | 0.0 | 0.0 | 0.00 | 0.00 | 0.00 | 96 | 1019.0 |
| 20260506113057 | 52 | 0 | 0.0 | 0.0 | 0.00 | 0.00 | 0.00 | 96 | 1019.0 |